Regional Weather Roundup
Issued by NWS

Home | Current Version | Previous Version | Text Only | Print | Product List | Glossary On
Versions: 1 2 3 4 5 6 7 8 9 10 11 12 13 14 15 16 17 18 19 20 21 22 23 24 25 26 27 28 29 30 31 32 33 34 35 36 37 38 39 40 41 42 43 44 45 46 47 48 49 50
000
ASUS44 KFWD 291315
RWRTX
NORTH TEXAS HOURLY WEATHER ROUNDUP
NATIONAL WEATHER SERVICE FORT WORTH TX
800 AM CDT WED JUL 29 2015

NOTE: "FAIR" INDICATES FEW OR NO CLOUDS BELOW 12,000 FEET WITH NO
SIGNIFICANT WEATHER AND/OR OBSTRUCTIONS TO VISIBILITY.

TXZ118-119-291400-
DALLAS/FORT WORTH METROPLEX

CITY           SKY/WX    TMP DP  RH WIND       PRES   REMARKS
DFW AIRPORT    MOSUNNY   81  69  67 S10       30.02R
DALLAS LOVE    MOSUNNY   82  68  62 S8        30.02R
FTW MEACHAM    SUNNY     82  68  62 S7        30.02R
DAL-EXECUTIVE  SUNNY     79  69  71 VRB6      30.03R
FTW-ALLIANCE   MOSUNNY   81  69  67 S8        30.02R
FTW-NAS-JRB    SUNNY     81  69  67 S8        30.03R
FTW-SPINKS     SUNNY     79  70  73 S6        30.04R
ARLINGTON      SUNNY     80  69  69 S9        30.03R
GRAND PRAIRIE  SUNNY     81  72  74 S9        30.04R
ADDISON        SUNNY     82  66  57 S7        30.03S
MESQUITE       SUNNY     77  72  83 S5        30.04R
LANCASTER      SUNNY     76  69  78 S5        30.04R
$$

TXZ091>094-102>105-117-120-121-131>134-291400-
NORTH CENTRAL TEXAS

CITY           SKY/WX    TMP DP  RH WIND       PRES   REMARKS
SHRMAN/DENISON SUNNY     81  70  70 S9        30.04R
GAINESVILLE    SUNNY     78  69  72 S6        30.05R
BOWIE          SUNNY     74  67  78 SE3       30.03R
DECATUR        SUNNY     79  66  64 S10       30.04R
DENTON         SUNNY     80  70  71 S6        30.02R
MCKINNEY       SUNNY     79  70  74 S6        30.03R
GREENVILLE     SUNNY     81  70  69 S5        30.04R
ROCKWALL       SUNNY     79  71  76 SW9       30.03R
TERRELL        SUNNY     78  72  81 S6        30.04R
WAXAHACHIE     SUNNY     76  71  84 S6        30.05R
CLEBURNE       SUNNY     77  73  88 S7        30.05R
GRANBURY       SUNNY     80  67  66 SE6       30.04R
$$

TXZ083>090-098>101-113>116-127>130-139>142-154-155-291400-
WESTERN NORTH TEXAS

CITY           SKY/WX    TMP DP  RH WIND       PRES   REMARKS
WICHITA FALLS  SUNNY     78  69  73 S7        29.99R
WF-KICKAPOO    SUNNY     79  68  68 S5        30.02R
VERNON         SUNNY     77  63  61 CALM      30.02R
ABILENE        MOSUNNY   78  69  73 CALM      30.06R
ABILENE-DYESS  MOSUNNY   79  71  75 S6        30.05R
BRECKENRIDGE   MOSUNNY   79  68  68 S8        30.02S
GRAHAM         SUNNY     79  70  74 SE3       30.01R
MINERAL WELLS  SUNNY     76  69  79 SE8       30.02R
STEPHENVILLE   SUNNY     75  68  79 S3        30.07R
COMANCHE       SUNNY     76  69  78 S5        30.05R
BROWNWOOD      MOSUNNY   77  68  73 SE7       30.05R
COLEMAN        MOSUNNY   77  70  77 S5        30.06R
BRADY          MOSUNNY   75  70  83 S5        30.06R
$$

TXZ143>147-156>162-174-175-291400-
CENTRAL TEXAS

CITY           SKY/WX    TMP DP  RH WIND       PRES   REMARKS
WACO           SUNNY     78  73  84 S10       30.03S
WACO-TSTC      SUNNY     77  72  83 S7        30.04R
WACO-MCGREGOR  SUNNY     75  70  83 S6        30.06R
HILLSBORO      SUNNY     77  70  77 SE8       30.04R
CORSICANA      SUNNY     77  73  87 S6        30.05R
MEXIA          SUNNY    N/A N/A N/A SE8       30.05R
HEARNE         SUNNY     77  75  93 CALM      30.05S
CAMERON        SUNNY     75  74  97 CALM      30.05R FOG
TEMPLE         SUNNY     75  70  83 S10       30.04R
KILLEEN        SUNNY     75  72  90 SE8       30.04R
KILLEEN-SKYLRK SUNNY     75  70  83 SE8       30.03R
FORT HOOD      SUNNY     75  72  89 SE7       30.04R
GATESVILLE     SUNNY     75  70  83 CALM      30.07R
HAMILTON       SUNNY     75  68  78 S6        30.06R
LAMPASAS         N/A     76  72  88 CALM      30.04R
$$

TXZ095>097-106>112-122>126-135>138-148>153-164>167-291400-
EAST TEXAS

CITY           SKY/WX    TMP DP  RH WIND       PRES   REMARKS
PARIS          SUNNY     79  70  73 S6        30.04S
SULPHUR SPRNGS SUNNY     80  70  70 S6        30.06S
MOUNT PLEASANT SUNNY     77  73  87 S3        30.06S
GILMER         SUNNY     77  71  81 CALM      30.05S
MINEOLA        SUNNY     81  73  78 S3        30.06R
TYLER          SUNNY     81  72  74 SW7       30.05R
LONGVIEW       SUNNY     81  72  74 S3        30.05R
MARSHALL       SUNNY     79  73  83 CALM      30.08R
ATHENS         SUNNY     73  70  88 CALM      30.04R
PALESTINE      SUNNY     77  75  92 CALM      30.07R
JACKSONVILLE   SUNNY     79  73  82 SW3       30.08R
HENDERSON      SUNNY     77  72  85 CALM      30.07R
CENTER         FAIR      80  74  82 CALM      30.05R
NACOGDOCHES    SUNNY     75  72  88 CALM      30.06R
LUFKIN         SUNNY     78  74  87 CALM      30.05R
$$

SUPPLEMENTAL OBSERVATIONS (CENTRAL)

CITY           SKY/WX    TMP DP  RH WIND       PRES   REMARKS
LAKE TEXOMA      N/A     79  70  73 E1          N/A
CADDO GRASSLND   N/A     81  70  69 S7          N/A
PAT MAYSE LAKE   N/A     81  72  74 S8          N/A
GREENVILLE       N/A     81  70  69 S6          N/A
CEDAR HILL       N/A     81  68  65 S6          N/A
MCGREGOR         N/A     77  73  88 S7          N/A
TEMPLE           N/A     77  72  83 S6          N/A
$$

SUPPLEMENTAL OBSERVATIONS (WEST)

CITY           SKY/WX    TMP DP  RH WIND       PRES   REMARKS
MILLERS CREEK    N/A     79  66  65 S6          N/A
POSSUM KINGDOM   N/A     81  68  65 SE7         N/A
LBJ GRASSLAND    N/A     79  68  69 SE8         N/A
GRANBURY         N/A     79  66  65 SE7         N/A
HAMBY            N/A     77  66  69 S6          N/A
IVIE RESERVOIR   N/A     79  70  73 SE3         N/A
COLORADO BEND    N/A     79  68  69 SW7         N/A
$$

SUPPLEMENTAL OBSERVATIONS (EAST)

CITY           SKY/WX    TMP DP  RH WIND       PRES   REMARKS
CLARKSVILLE      N/A     81  72  74 S3          N/A
TEXARKANA        N/A     81  75  83 CALM        N/A
LINDEN           N/A     82  70  65 W2          N/A
GILMER           N/A     81  72  74 CALM        N/A
HENDERSON        N/A     79  72  78 S2          N/A
LUFKIN           N/A     81  75  83 MISG        N/A
N SABINE NF      N/A     75  72  88 MISG        N/A
S SABINE NF      N/A     81  75  83 CALM        N/A
$$

SUPPLEMENTAL OBSERVATIONS ARE A COLLECTION OF AUTOMATED INSTRUMENTS
THAT ARE MAINTAINED BY A VARIETY OF FEDERAL AND STATE AGENCIES.
CERTAIN ELEMENTS...SUCH AS HUMIDITY VALUES AND SUSTAINED WIND
SPEEDS...MAY BE APPROXIMATED.



USA.gov is the U.S. government's official web portal to all federal, state and local government web resources and services.